Find Local Weather

World > North America > United States > Tennessee

Lawrenceburg, Tennessee Regional Weather

Lat: 35.25N, Lon: 87.34W
Wx Zone: TNZ094
Feedback
Expires:201808190900;;884263
ASUS44 KMEG 190800
RWRTN 
TENNESSEE HOURLY STATE WEATHER ROUNDUP
NATIONAL WEATHER SERVICE MEMPHIS TN
300 AM CDT SUN AUG 19 2018


TNZ061-075-076-078-094-096-097-190900-
SOUTH MIDDLE TENNESSEE
  
CITY           SKY/WX    TMP DP  RH WIND       PRES   REMARKS
$$


SKY/WX - Weather  TMP - Temperature  DP - Dewpoint  RH - Relative Humidity
WIND - Wind Direction/Speed PRES - Barometric Pressure